Location: Starry Hill Observatory
(46.8582°N, 122.3590°W)
Time: 12:38:25
(UTC-08:00)

ISS - Visible Passes

Search period start: 25 November 2014 00:00
Search period end: 05 December 2014 00:00
Orbit: 407 x 417 km, 51.6° (Epoch: 25 November)

Date Brightness Start Highest point End Pass type
(mag) Time Alt. Az. Time Alt. Az. Time Alt. Az.
25 Nov -3.3 05:22:54 77° ESE 05:22:54 77° ESE 05:25:59 10° ESE visible
26 Nov -0.3 04:35:17 17° E 04:35:17 17° E 04:36:08 10° ESE visible
26 Nov -1.9 06:08:06 21° WSW 06:09:18 26° SW 06:12:06 10° SSE visible
27 Nov -2.0 05:20:26 32° S 05:20:26 32° S 05:22:38 10° SE visible
28 Nov 0.0 04:32:45 11° SE 04:32:45 11° SE 04:32:50 10° SE visible
28 Nov -0.9 06:05:34 12° SW 06:05:39 12° SW 06:06:51 10° SSW visible
29 Nov -0.6 05:17:52 12° S 05:17:52 12° S 05:18:10 10° S visible
